Regional Weather Roundup
Issued by NWS

Home | Current Version | Previous Version | Graphics & Text | Print | Product List | Glossary On
Versions: 1 2 3 4 5 6 7 8 9 10 11 12 13 14 15 16 17 18 19 20 21 22 23 24 25 26 27 28 29 30 31 32 33 34 35 36 37 38 39 40 41 42 43 44 45 46 47 48 49 50
398
ASUS44 KMEG 281910
RWRTN
TENNESSEE HOURLY STATE WEATHER ROUNDUP
NATIONAL WEATHER SERVICE MEMPHIS TN
200 PM CDT THU JUL 28 2016

TNZ002-004-019-021-049-052-054-088>092-282000-
WEST TENNESSEE

CITY           SKY/WX    TMP DP  RH WIND       PRES   REMARKS
MEMPHIS INTL   CLOUDY    88  75  66 VRB7      29.95F HX  97
NWS MEMPHIS      N/A     85 N/A N/A MISG        N/A
JACKSON        CLOUDY    88  74  63 W9        29.93F HX  96
DYERSBURG      MOSUNNY  N/A N/A N/A MISG        N/A
UNION CITY     PTSUNNY   88  77  70 SW3       29.91S HX 100
PARIS          MOSUNNY   82  73  74 NW5       29.93F
LEXINGTON      MOSUNNY   79  75  89 W6        29.94S
$$

TNZ008-025-027-028-033-062-065-066-282000-
NORTH MIDDLE TENNESSEE

CITY           SKY/WX    TMP DP  RH WIND       PRES   REMARKS
NASHVILLE      CLOUDY    80  72  76 NW10      29.92S
CLARKSVILLE    MOSUNNY   84  70  62 N3        29.91F
SMYRNA         CLOUDY    78  76  94 W7        29.92S
COOKEVILLE     CLOUDY    79  75  89 SW9       29.91
CROSSVILLE     CLOUDY    76  72  87 SW9       29.97F
$$

TNZ061-075-076-078-094-096-097-282000-
SOUTH MIDDLE TENNESSEE

CITY           SKY/WX    TMP DP  RH WIND       PRES   REMARKS
FAYETTEVILLE   CLOUDY    77  75  94 W15G22    29.96S FOG
TULLAHOMA      MOSUNNY   79  73  83 W10       29.95
WINCHESTER     CLOUDY    77  73  88 VRB6      29.96S
MCMINNVILLE    CLOUDY    77  77 100 SW5       29.93F
COLUMBIA       PTSUNNY   82  82 100 VRB5      29.92S HX  97
SHELBYVILLE    CLOUDY    82  75  78 W13       29.94F
$$

TNZ017-018-042-046-047-282000-
NORTHEAST TENNESSEE

CITY           SKY/WX    TMP DP  RH WIND       PRES   REMARKS
TRI CITIES     PTSUNNY   87  70  56 W13       29.94F HX  92
ELIZABETHTON   PTSUNNY   86  72  62 VRB5      29.93F HX  92
$$

TNZ012-013-036-069-073-074-282000-
CENTRAL EAST TENNESSEE

CITY           SKY/WX    TMP DP  RH WIND       PRES   REMARKS
KNOXVILLE      LGT RAIN  83  68  60 SW26G32   29.93F
OAK RIDGE      LGT RAIN  78  73  84 VRB5      29.95S
MORRISTOWN     CLOUDY    86  66  51 W15G22    29.93F
$$

TNZ083-085-099-282000-
SOUTHEAST TENNESSEE

CITY           SKY/WX    TMP DP  RH WIND       PRES   REMARKS
CHATTANOOGA    PTSUNNY   85  68  56 S16G28    29.93F
$$

SKY/WX REPORTED AS FAIR MEANS FEW OR NO CLOUDS BELOW
12 THOUSAND FEET.





USA.gov is the U.S. government's official web portal to all federal, state and local government web resources and services.